QPF
0.00 0.00 0.00 0.00 0.00 0.01 0.01 0.02 0.02 0.02 0.01 0.01 0.01 0.01 0.00 0.01 0.00 0.01 0.01 0.01 0.02 0.02 0.02 0.02 0.02 0.02 0.02 0.02 0.02 0.02 0.02 0.03 0.04 0.02 0.02 0.02 0.03 0.04 0.07 0.09 0.11 0.07 0.05
0.00 0.00 0.00 0.01 0.01 0.01 0.01 0.02 0.02 0.02 0.02 0.01 0.01 0.01 0.01 0.01 0.01 0.01 0.01 0.02 0.02 0.01 0.01 0.01 0.02 0.02 0.02 0.01 0.01 0.01 0.02 0.03 0.04 0.04 0.02 0.02 0.03 0.04 0.07 0.10 0.16 0.08 0.05
0.00 0.00 0.00 0.00 0.01 0.01 0.02 0.02 0.03 0.02 0.02 0.02 0.01 0.01 0.01 0.01 0.01 0.01 0.01 0.01 0.01 0.01 0.02 0.02 0.02 0.02 0.01 0.01 0.01 0.01 0.01 0.02 0.05 0.08 0.13 0.09 0.02 0.03 0.06 0.08 0.08 0.04 0.04
0.00 0.00 0.00 0.00 0.01 0.01 0.02 0.02 0.02 0.02 0.02 0.02 0.01 0.01 0.01 0.01 0.02 0.02 0.01 0.01 0.01 0.01 0.01 0.01 0.01 0.01 0.01 0.01 0.02 0.02 0.02 0.02 0.06 0.17 0.29 0.15 0.04 0.02 0.03 0.04 0.04 0.04 0.04
0.00 0.00 0.00 0.00 0.01 0.01 0.01 0.01 0.02 0.02 0.02 0.02 0.02 0.02 0.01 0.01 0.01 0.01 0.01 0.01 0.01 0.01 0.01 0.01 0.01 0.00 0.00 0.00 0.01 0.01 0.01 0.02 0.08 0.21 0.26 0.21 0.09 0.02 0.02 0.04 0.05 0.06 0.05
0.00 0.00 0.00 0.00 0.01 0.01 0.01 0.01 0.01 0.01 0.01 0.01 0.02 0.02 0.02 0.02 0.02 0.02 0.01 0.01 0.01 0.01 0.01 0.01 0.00 0.00 0.01 0.00 0.00 0.00 0.01 0.02 0.12 0.17 0.14 0.15 0.10 0.02 0.02 0.04 0.06 0.07 0.07
0.00 0.00 0.00 0.00 0.01 0.01 0.01 0.01 0.01 0.01 0.01 0.01 0.01 0.02 0.02 0.02 0.02 0.02 0.01 0.01 0.01 0.01 0.01 0.00 0.00 0.01 0.01 0.01 0.00 0.00 0.01 0.04 0.15 0.11 0.10 0.17 0.10 0.02 0.03 0.05 0.07 0.06 0.06
0.00 0.00 0.00 0.00 0.00 0.01 0.01 0.01 0.01 0.01 0.01 0.01 0.01 0.01 0.01 0.01 0.01 0.02 0.01 0.01 0.01 0.01 0.00 0.00 0.01 0.01 0.01 0.01 0.01 0.01 0.01 0.02 0.09 0.09 0.07 0.12 0.05 0.03 0.04 0.04 0.05 0.05 0.04
0.00 0.00 0.00 0.00 0.00 0.01 0.01 0.01 0.01 0.01 0.01 0.01 0.01 0.01 0.01 0.01 0.01 0.01 0.01 0.01 0.01 0.01 0.01 0.01 0.01 0.00 0.00 0.01 0.01 0.01 0.01 0.01 0.06 0.06 0.08 0.07 0.02 0.02 0.02 0.03 0.03 0.03 0.03
0.02 0.01 0.01 0.00 0.01 0.01 0.01 0.01 0.01 0.01 0.01 0.01 0.01 0.01 0.01 0.01 0.01 0.01 0.01 0.01 0.01 0.01 0.01 0.01 0.01 0.01 0.00 0.00 0.01 0.01 0.01 0.02 0.06 0.08 0.08 0.06 0.02 0.02 0.02 0.02 0.03 0.03 0.03
0.07 0.04 0.02 0.02 0.02 0.02 0.01 0.01 0.01 0.02 0.02 0.02 0.03 0.02 0.02 0.04 0.07 0.06 0.03 0.03 0.01 0.01 0.01 0.02 0.02 0.02 0.01 0.01 0.00 0.01 0.02 0.02 0.11 0.20 0.17 0.09 0.02 0.02 0.03 0.03 0.03 0.03 0.03
0.10 0.07 0.06 0.05 0.03 0.03 0.05 0.05 0.06 0.05 0.06 0.07 0.09 0.07 0.08 0.12 0.12 0.09 0.07 0.04 0.02 0.02 0.02 0.02 0.02 0.02 0.02 0.03 0.03 0.01 0.01 0.02 0.08 0.19 0.20 0.15 0.05 0.03 0.03 0.04 0.03 0.02 0.02
0.12 0.10 0.08 0.09 0.08 0.07 0.12 0.11 0.09 0.09 0.10 0.10 0.12 0.10 0.11 0.09 0.06 0.07 0.09 0.06 0.05 0.04 0.08 0.10 0.07 0.06 0.06 0.05 0.04 0.03 0.01 0.02 0.05 0.10 0.16 0.11 0.06 0.03 0.03 0.04 0.05 0.04 0.03
0.14 0.11 0.10 0.10 0.11 0.10 0.09 0.09 0.08 0.07 0.08 0.09 0.11 0.08 0.10 0.10 0.09 0.10 0.11 0.09 0.09 0.10 0.12 0.13 0.14 0.10 0.08 0.06 0.04 0.03 0.01 0.02 0.05 0.08 0.14 0.10 0.06 0.04 0.04 0.04 0.04 0.04 0.03
0.13 0.11 0.08 0.08 0.10 0.12 0.11 0.10 0.08 0.08 0.08 0.09 0.09 0.08 0.08 0.10 0.11 0.11 0.09 0.09 0.09 0.09 0.10 0.11 0.10 0.10 0.09 0.07 0.04 0.02 0.01 0.02 0.02 0.04 0.08 0.06 0.04 0.03 0.04 0.06 0.05 0.04 0.04
0.19 0.12 0.10 0.08 0.09 0.11 0.12 0.11 0.10 0.07 0.07 0.08 0.08 0.09 0.10 0.10 0.11 0.11 0.10 0.08 0.05 0.06 0.08 0.10 0.09 0.08 0.08 0.08 0.07 0.04 0.03 0.03 0.02 0.02 0.04 0.06 0.03 0.03 0.03 0.05 0.06 0.07 0.06
0.18 0.13 0.11 0.10 0.10 0.11 0.13 0.12 0.08 0.06 0.06 0.07 0.09 0.09 0.08 0.07 0.08 0.08 0.09 0.08 0.06 0.07 0.08 0.08 0.10 0.09 0.08 0.09 0.10 0.08 0.07 0.05 0.04 0.03 0.03 0.05 0.05 0.04 0.03 0.03 0.06 0.09 0.09
0.14 0.12 0.12 0.09 0.09 0.10 0.09 0.08 0.06 0.07 0.07 0.08 0.08 0.07 0.06 0.06 0.05 0.07 0.09 0.08 0.07 0.05 0.06 0.08 0.09 0.10 0.10 0.09 0.08 0.06 0.07 0.07 0.04 0.04 0.03 0.04 0.06 0.05 0.07 0.06 0.05 0.06 0.08
0.13 0.13 0.13 0.12 0.10 0.10 0.10 0.08 0.07 0.08 0.12 0.10 0.07 0.06 0.05 0.05 0.05 0.06 0.07 0.07 0.05 0.05 0.05 0.05 0.08 0.10 0.09 0.08 0.07 0.07 0.07 0.06 0.06 0.04 0.04 0.06 0.05 0.05 0.07 0.08 0.05 0.05 0.06
0.14 0.11 0.11 0.12 0.12 0.12 0.11 0.09 0.08 0.07 0.08 0.06 0.05 0.06 0.04 0.04 0.04 0.05 0.07 0.07 0.07 0.06 0.06 0.06 0.07 0.08 0.07 0.07 0.06 0.08 0.06 0.05 0.05 0.06 0.04 0.06 0.06 0.03 0.06 0.10 0.13 0.08 0.06
0.11 0.09 0.08 0.09 0.09 0.11 0.11 0.09 0.07 0.07 0.06 0.05 0.05 0.05 0.04 0.03 0.03 0.03 0.05 0.07 0.06 0.06 0.05 0.06 0.06 0.06 0.06 0.05 0.07 0.07 0.04 0.04 0.06 0.06 0.06 0.06 0.05 0.04 0.06 0.11 0.14 0.15 0.14
0.09 0.08 0.07 0.08 0.08 0.08 0.08 0.07 0.07 0.06 0.05 0.05 0.05 0.04 0.02 0.01 0.01 0.02 0.03 0.03 0.03 0.03 0.04 0.03 0.03 0.04 0.03 0.03 0.05 0.06 0.05 0.06 0.06 0.04 0.05 0.05 0.05 0.06 0.05 0.06 0.09 0.13 0.15
0.07 0.07 0.07 0.07 0.06 0.07 0.07 0.06 0.06 0.05 0.04 0.03 0.03 0.02 0.01 0.00 0.01 0.02 0.02 0.02 0.02 0.02 0.03 0.02 0.02 0.02 0.03 0.03 0.04 0.04 0.04 0.06 0.07 0.05 0.03 0.04 0.05 0.05 0.05 0.05 0.06 0.09 0.12
0.05 0.05 0.07 0.09 0.07 0.06 0.06 0.06 0.05 0.03 0.03 0.03 0.03 0.02 0.01 0.00 0.00 0.01 0.01 0.01 0.01 0.01 0.01 0.01 0.02 0.01 0.02 0.03 0.04 0.03 0.03 0.04 0.05 0.05 0.03 0.03 0.02 0.03 0.03 0.02 0.02 0.04 0.07
0.04 0.05 0.06 0.08 0.09 0.07 0.06 0.05 0.04 0.03 0.03 0.02 0.02 0.01 0.01 0.01 0.00 0.00 0.00 0.00 0.00 0.00 0.00 0.00 0.00 0.00 0.01 0.01 0.01 0.01 0.01 0.02 0.03 0.03 0.04 0.03 0.02 0.01 0.01 0.01 0.01 0.02 0.03
0.04 0.05 0.06 0.06 0.07 0.07 0.06 0.04 0.03 0.03 0.03 0.02 0.01 0.01 0.01 0.01 0.00 0.00 0.00 0.00 0.00 0.00 0.00 0.00 0.00 0.00 0.00 0.00 0.01 0.01 0.01 0.01 0.01 0.01 0.02 0.03 0.02 0.01 0.00 0.01 0.01 0.01 0.01
MSLP
1007.94 1008.00 1008.25 1008.72 1009.36 1010.09 1010.82 1011.45 1011.93 1012.26 1012.44 1012.56 1012.67 1012.83 1013.07 1013.38 1013.72 1014.05 1014.32 1014.52 1014.63 1014.68 1014.70 1014.72 1014.76 1014.84 1014.93 1015.02 1015.10 1015.14 1015.15 1015.15 1015.16 1015.20 1015.30 1015.45 1015.65 1015.89 1016.15 1016.40 1016.63 1016.86 1017.07
1007.88 1008.08 1008.44 1008.98 1009.64 1010.35 1011.02 1011.59 1012.01 1012.30 1012.48 1012.63 1012.79 1013.01 1013.30 1013.65 1014.01 1014.34 1014.59 1014.77 1014.87 1014.92 1014.95 1015.00 1015.07 1015.16 1015.26 1015.35 1015.40 1015.41 1015.39 1015.37 1015.37 1015.42 1015.53 1015.72 1015.95 1016.22 1016.50 1016.77 1017.01 1017.23 1017.43
1007.74 1008.09 1008.59 1009.21 1009.91 1010.61 1011.24 1011.76 1012.14 1012.40 1012.59 1012.77 1012.98 1013.24 1013.57 1013.92 1014.27 1014.56 1014.78 1014.93 1015.02 1015.08 1015.14 1015.23 1015.34 1015.47 1015.59 1015.67 1015.70 1015.67 1015.62 1015.57 1015.55 1015.61 1015.74 1015.95 1016.21 1016.51 1016.81 1017.08 1017.33 1017.55 1017.75
1007.51 1008.04 1008.68 1009.41 1010.16 1010.88 1011.49 1011.98 1012.33 1012.59 1012.80 1013.01 1013.25 1013.55 1013.88 1014.21 1014.52 1014.76 1014.93 1015.03 1015.11 1015.19 1015.29 1015.42 1015.59 1015.75 1015.88 1015.96 1015.96 1015.90 1015.81 1015.74 1015.71 1015.77 1015.91 1016.14 1016.43 1016.74 1017.05 1017.33 1017.59 1017.81 1018.02
1007.26 1007.96 1008.76 1009.60 1010.42 1011.16 1011.78 1012.25 1012.60 1012.86 1013.09 1013.33 1013.60 1013.91 1014.23 1014.53 1014.77 1014.95 1015.05 1015.11 1015.17 1015.26 1015.39 1015.57 1015.78 1015.97 1016.12 1016.18 1016.16 1016.07 1015.95 1015.86 1015.83 1015.89 1016.06 1016.31 1016.61 1016.94 1017.25 1017.53 1017.79 1018.02 1018.25
1007.03 1007.90 1008.84 1009.79 1010.68 1011.45 1012.07 1012.54 1012.88 1013.15 1013.40 1013.66 1013.96 1014.27 1014.57 1014.83 1015.02 1015.13 1015.17 1015.19 1015.23 1015.32 1015.47 1015.68 1015.91 1016.13 1016.27 1016.32 1016.27 1016.16 1016.03 1015.94 1015.92 1016.00 1016.20 1016.47 1016.79 1017.12 1017.43 1017.71 1017.96 1018.20 1018.44
1006.90 1007.89 1008.95 1009.99 1010.93 1011.72 1012.34 1012.80 1013.13 1013.40 1013.66 1013.94 1014.25 1014.57 1014.86 1015.09 1015.23 1015.29 1015.28 1015.27 1015.28 1015.37 1015.53 1015.75 1015.99 1016.20 1016.33 1016.36 1016.30 1016.18 1016.05 1015.97 1015.98 1016.11 1016.34 1016.64 1016.98 1017.31 1017.61 1017.88 1018.12 1018.35 1018.60
1006.90 1007.96 1009.09 1010.18 1011.14 1011.94 1012.54 1012.96 1013.28 1013.54 1013.80 1014.09 1014.41 1014.74 1015.04 1015.26 1015.38 1015.41 1015.38 1015.34 1015.34 1015.42 1015.57 1015.78 1016.01 1016.20 1016.31 1016.32 1016.25 1016.13 1016.02 1015.98 1016.04 1016.21 1016.49 1016.83 1017.19 1017.52 1017.81 1018.06 1018.27 1018.49 1018.74
1007.02 1008.10 1009.24 1010.33 1011.29 1012.05 1012.61 1013.00 1013.28 1013.51 1013.77 1014.06 1014.40 1014.75 1015.06 1015.30 1015.43 1015.47 1015.45 1015.41 1015.41 1015.47 1015.61 1015.80 1015.99 1016.15 1016.23 1016.23 1016.16 1016.06 1015.98 1015.98 1016.10 1016.33 1016.65 1017.03 1017.40 1017.73 1018.01 1018.24 1018.43 1018.63 1018.86
1007.24 1008.27 1009.38 1010.43 1011.34 1012.05 1012.56 1012.90 1013.13 1013.34 1013.58 1013.88 1014.23 1014.61 1014.95 1015.23 1015.40 1015.48 1015.48 1015.46 1015.47 1015.53 1015.65 1015.81 1015.97 1016.10 1016.15 1016.14 1016.07 1015.99 1015.95 1016.00 1016.17 1016.44 1016.80 1017.20 1017.58 1017.92 1018.18 1018.39 1018.57 1018.75 1018.97
1007.50 1008.44 1009.46 1010.44 1011.29 1011.94 1012.39 1012.68 1012.88 1013.05 1013.28 1013.58 1013.95 1014.35 1014.74 1015.07 1015.30 1015.43 1015.49 1015.51 1015.53 1015.59 1015.70 1015.83 1015.96 1016.06 1016.10 1016.08 1016.02 1015.97 1015.96 1016.04 1016.24 1016.54 1016.92 1017.32 1017.70 1018.03 1018.29 1018.49 1018.66 1018.84 1019.06
1007.75 1008.56 1009.48 1010.37 1011.14 1011.73 1012.14 1012.40 1012.57 1012.73 1012.95 1013.25 1013.63 1014.06 1014.50 1014.87 1015.17 1015.36 1015.48 1015.54 1015.60 1015.67 1015.76 1015.88 1015.98 1016.06 1016.09 1016.07 1016.03 1015.99 1016.01 1016.10 1016.30 1016.60 1016.96 1017.34 1017.71 1018.03 1018.29 1018.50 1018.69 1018.88 1019.12
1007.95 1008.63 1009.42 1010.22 1010.93 1011.48 1011.87 1012.12 1012.29 1012.45 1012.67 1012.98 1013.37 1013.81 1014.27 1014.69 1015.03 1015.29 1015.46 1015.57 1015.65 1015.73 1015.83 1015.93 1016.03 1016.10 1016.13 1016.12 1016.09 1016.06 1016.08 1016.17 1016.34 1016.60 1016.91 1017.25 1017.59 1017.89 1018.16 1018.39 1018.62 1018.86 1019.13
1008.10 1008.64 1009.32 1010.04 1010.70 1011.24 1011.64 1011.92 1012.11 1012.30 1012.52 1012.83 1013.21 1013.66 1014.12 1014.56 1014.93 1015.22 1015.43 1015.58 1015.69 1015.79 1015.89 1015.99 1016.08 1016.16 1016.20 1016.20 1016.18 1016.16 1016.17 1016.22 1016.35 1016.53 1016.77 1017.05 1017.34 1017.62 1017.90 1018.17 1018.45 1018.76 1019.09
1008.22 1008.64 1009.22 1009.88 1010.52 1011.07 1011.51 1011.84 1012.08 1012.30 1012.54 1012.84 1013.20 1013.62 1014.06 1014.49 1014.87 1015.17 1015.40 1015.57 1015.70 1015.81 1015.91 1016.02 1016.12 1016.20 1016.26 1016.29 1016.28 1016.26 1016.25 1016.26 1016.31 1016.41 1016.57 1016.76 1016.99 1017.25 1017.54 1017.86 1018.20 1018.58 1018.99
1008.36 1008.68 1009.18 1009.80 1010.43 1011.02 1011.51 1011.90 1012.20 1012.46 1012.71 1013.00 1013.33 1013.70 1014.09 1014.48 1014.83 1015.13 1015.36 1015.54 1015.67 1015.79 1015.90 1016.01 1016.12 1016.22 1016.29 1016.34 1016.35 1016.34 1016.31 1016.27 1016.25 1016.27 1016.33 1016.44 1016.61 1016.85 1017.14 1017.49 1017.90 1018.35 1018.83
1008.57 1008.82 1009.26 1009.84 1010.47 1011.09 1011.64 1012.09 1012.45 1012.74 1013.00 1013.25 1013.53 1013.84 1014.17 1014.50 1014.81 1015.08 1015.30 1015.48 1015.62 1015.74 1015.85 1015.96 1016.08 1016.19 1016.29 1016.36 1016.39 1016.38 1016.34 1016.27 1016.20 1016.14 1016.12 1016.16 1016.27 1016.47 1016.76 1017.13 1017.58 1018.08 1018.60
1008.90 1009.09 1009.48 1010.02 1010.65 1011.28 1011.87 1012.37 1012.77 1013.08 1013.33 1013.55 1013.76 1014.00 1014.25 1014.52 1014.79 1015.03 1015.24 1015.42 1015.56 1015.68 1015.79 1015.90 1016.02 1016.14 1016.25 1016.34 1016.39 1016.40 1016.36 1016.28 1016.17 1016.07 1015.99 1015.96 1016.02 1016.18 1016.45 1016.83 1017.29 1017.80 1018.34
1009.35 1009.50 1009.84 1010.34 1010.93 1011.56 1012.16 1012.68 1013.10 1013.41 1013.64 1013.82 1013.97 1014.14 1014.33 1014.54 1014.76 1014.99 1015.19 1015.37 1015.52 1015.65 1015.75 1015.86 1015.97 1016.08 1016.20 1016.30 1016.37 1016.41 1016.39 1016.31 1016.20 1016.07 1015.96 1015.89 1015.91 1016.03 1016.26 1016.60 1017.03 1017.53 1018.04
1009.91 1010.03 1010.32 1010.75 1011.30 1011.88 1012.46 1012.97 1013.38 1013.68 1013.89 1014.02 1014.13 1014.24 1014.37 1014.54 1014.75 1014.96 1015.18 1015.37 1015.53 1015.66 1015.77 1015.87 1015.96 1016.06 1016.17 1016.28 1016.37 1016.43 1016.44 1016.39 1016.30 1016.17 1016.05 1015.96 1015.93 1016.00 1016.18 1016.46 1016.84 1017.28 1017.74
1010.52 1010.62 1010.85 1011.22 1011.68 1012.21 1012.73 1013.21 1013.59 1013.87 1014.05 1014.15 1014.22 1014.30 1014.40 1014.56 1014.75 1014.98 1015.22 1015.43 1015.62 1015.76 1015.87 1015.95 1016.02 1016.10 1016.20 1016.30 1016.40 1016.48 1016.52 1016.52 1016.45 1016.35 1016.23 1016.12 1016.07 1016.08 1016.19 1016.40 1016.70 1017.05 1017.43
1011.12 1011.22 1011.39 1011.67 1012.05 1012.49 1012.95 1013.38 1013.73 1013.98 1014.14 1014.23 1014.28 1014.34 1014.44 1014.59 1014.80 1015.05 1015.32 1015.56 1015.77 1015.93 1016.03 1016.10 1016.15 1016.21 1016.28 1016.37 1016.47 1016.57 1016.64 1016.67 1016.65 1016.58 1016.47 1016.36 1016.27 1016.23 1016.27 1016.39 1016.59 1016.85 1017.14
1011.65 1011.74 1011.86 1012.06 1012.35 1012.71 1013.10 1013.48 1013.79 1014.03 1014.19 1014.27 1014.33 1014.39 1014.50 1014.67 1014.90 1015.17 1015.47 1015.74 1015.97 1016.14 1016.25 1016.31 1016.34 1016.37 1016.42 1016.49 1016.59 1016.69 1016.79 1016.85 1016.86 1016.82 1016.72 1016.61 1016.49 1016.40 1016.37 1016.41 1016.51 1016.67 1016.87
1012.06 1012.14 1012.23 1012.37 1012.59 1012.87 1013.20 1013.54 1013.83 1014.07 1014.23 1014.33 1014.41 1014.49 1014.61 1014.79 1015.04 1015.33 1015.64 1015.93 1016.18 1016.36 1016.47 1016.52 1016.54 1016.55 1016.57 1016.63 1016.72 1016.83 1016.94 1017.02 1017.06 1017.04 1016.96 1016.84 1016.70 1016.56 1016.46 1016.42 1016.43 1016.50 1016.62
1012.30 1012.41 1012.49 1012.59 1012.76 1012.99 1013.28 1013.58 1013.87 1014.12 1014.30 1014.43 1014.53 1014.64 1014.77 1014.96 1015.20 1015.49 1015.80 1016.10 1016.35 1016.53 1016.65 1016.70 1016.71 1016.71 1016.73 1016.78 1016.86 1016.97 1017.08 1017.17 1017.23 1017.22 1017.15 1017.02 1016.86 1016.69 1016.54 1016.42 1016.35 1016.35 1016.39
1012.39 1012.54 1012.63 1012.73 1012.87 1013.08 1013.35 1013.65 1013.95 1014.21 1014.42 1014.59 1014.71 1014.83 1014.97 1015.15 1015.38 1015.65 1015.93 1016.21 1016.45 1016.63 1016.75 1016.81 1016.83 1016.84 1016.86 1016.91 1016.99 1017.09 1017.21 1017.31 1017.37 1017.37 1017.30 1017.17 1017.00 1016.79 1016.59 1016.42 1016.29 1016.22 1016.20
Thickness
5819 5812 5805 5801 5798 5794 5791 5788 5785 5782 5779 5776 5774 5772 5770 5769 5767 5766 5764 5763 5762 5761 5760 5759 5759 5758 5758 5757 5756 5756 5755 5754 5753 5752 5751 5750 5749 5748 5748 5747 5747 5745 5743
5820 5811 5804 5800 5796 5792 5789 5786 5783 5780 5777 5774 5772 5770 5768 5767 5765 5764 5762 5761 5760 5759 5758 5757 5757 5756 5756 5755 5754 5754 5753 5752 5752 5751 5749 5748 5747 5747 5747 5746 5746 5743 5742
5817 5808 5802 5798 5794 5790 5787 5784 5782 5779 5776 5773 5770 5768 5767 5765 5764 5762 5761 5760 5759 5758 5756 5755 5755 5754 5753 5753 5753 5752 5752 5751 5750 5750 5750 5748 5746 5745 5745 5745 5743 5742 5740
5815 5807 5801 5795 5792 5788 5785 5782 5780 5777 5774 5771 5769 5767 5765 5764 5762 5760 5759 5758 5757 5756 5755 5754 5753 5752 5752 5751 5751 5751 5751 5750 5750 5749 5749 5748 5746 5744 5743 5743 5741 5740 5739
5814 5806 5797 5793 5790 5786 5783 5781 5778 5775 5773 5770 5767 5765 5763 5762 5760 5759 5757 5756 5755 5754 5753 5752 5751 5750 5750 5749 5749 5750 5749 5749 5749 5749 5748 5746 5744 5742 5742 5741 5739 5738 5737
5812 5802 5794 5791 5787 5783 5780 5778 5776 5773 5770 5768 5766 5764 5762 5760 5759 5757 5756 5755 5753 5752 5751 5750 5749 5748 5748 5748 5748 5748 5748 5749 5749 5750 5748 5746 5743 5741 5740 5739 5738 5736 5735
5810 5799 5791 5787 5784 5781 5778 5775 5773 5771 5768 5766 5764 5762 5760 5758 5757 5755 5754 5753 5752 5750 5749 5748 5748 5747 5746 5746 5746 5746 5747 5748 5749 5750 5748 5745 5742 5740 5739 5737 5736 5735 5734
5808 5797 5787 5784 5781 5778 5775 5772 5770 5768 5766 5764 5762 5760 5758 5756 5755 5753 5752 5751 5749 5748 5747 5746 5746 5745 5745 5744 5744 5745 5746 5747 5750 5750 5748 5744 5741 5739 5737 5735 5735 5734 5733
5806 5794 5786 5781 5778 5774 5772 5769 5767 5765 5763 5761 5760 5758 5756 5755 5753 5752 5750 5749 5747 5745 5745 5744 5744 5743 5743 5743 5743 5743 5745 5747 5748 5749 5747 5743 5740 5738 5736 5735 5733 5732 5732
5801 5794 5787 5782 5777 5773 5770 5767 5765 5763 5761 5759 5758 5756 5755 5753 5752 5750 5748 5746 5744 5743 5742 5742 5741 5741 5741 5741 5741 5742 5744 5745 5747 5747 5744 5741 5740 5738 5735 5734 5732 5731 5731
5794 5791 5787 5782 5778 5775 5771 5766 5763 5761 5759 5758 5756 5755 5753 5753 5752 5749 5748 5745 5743 5741 5741 5740 5739 5739 5739 5739 5740 5741 5743 5744 5745 5743 5741 5738 5738 5737 5735 5733 5732 5730 5730
5784 5784 5784 5780 5778 5776 5773 5766 5764 5762 5759 5757 5756 5754 5753 5753 5752 5750 5747 5745 5742 5741 5739 5738 5738 5737 5737 5739 5739 5740 5742 5744 5743 5740 5737 5735 5735 5735 5734 5732 5731 5730 5729
5781 5780 5779 5777 5776 5774 5770 5765 5764 5763 5759 5758 5756 5754 5753 5752 5751 5749 5746 5743 5742 5740 5739 5737 5736 5737 5738 5738 5739 5740 5742 5743 5741 5738 5735 5733 5733 5733 5732 5731 5730 5729 5728
5778 5776 5776 5774 5771 5770 5768 5766 5764 5762 5758 5757 5755 5754 5752 5750 5748 5747 5745 5743 5742 5741 5739 5738 5737 5736 5736 5737 5738 5738 5740 5740 5739 5736 5733 5732 5731 5731 5731 5730 5729 5728 5727
5771 5771 5772 5771 5767 5766 5764 5762 5762 5760 5758 5756 5754 5752 5750 5748 5746 5745 5743 5741 5740 5739 5738 5736 5735 5735 5735 5735 5735 5736 5737 5737 5737 5736 5732 5731 5730 5730 5730 5728 5727 5727 5726
5768 5768 5768 5766 5764 5761 5759 5757 5757 5757 5755 5754 5752 5749 5747 5746 5743 5742 5740 5738 5738 5737 5736 5735 5734 5733 5732 5732 5732 5732 5733 5734 5734 5733 5731 5730 5729 5729 5728 5727 5727 5726 5725
5764 5764 5763 5761 5759 5757 5755 5754 5755 5754 5752 5751 5748 5746 5745 5743 5741 5740 5738 5736 5735 5735 5733 5733 5732 5731 5730 5730 5729 5729 5730 5730 5730 5730 5729 5729 5728 5727 5726 5726 5726 5725 5724
5760 5759 5759 5760 5755 5752 5751 5751 5752 5751 5750 5747 5746 5744 5742 5741 5740 5738 5736 5734 5734 5733 5732 5731 5730 5728 5727 5726 5726 5727 5728 5727 5727 5728 5728 5727 5726 5726 5725 5724 5724 5723 5723
5756 5755 5754 5754 5751 5749 5748 5748 5748 5748 5746 5744 5743 5741 5739 5738 5738 5737 5734 5732 5732 5731 5730 5730 5727 5725 5724 5724 5724 5726 5726 5726 5726 5726 5726 5725 5725 5724 5724 5723 5722 5722 5721
5754 5753 5752 5750 5748 5746 5745 5744 5745 5744 5743 5743 5741 5739 5737 5736 5735 5734 5733 5731 5731 5729 5728 5726 5724 5724 5723 5723 5724 5725 5725 5726 5726 5725 5725 5724 5723 5722 5722 5721 5720 5720 5720
5751 5749 5748 5746 5744 5743 5741 5740 5740 5739 5740 5740 5738 5737 5736 5735 5733 5733 5732 5730 5729 5727 5725 5724 5723 5721 5721 5722 5719 5719 5723 5726 5725 5724 5724 5723 5722 5721 5720 5719 5718 5717 5717
5749 5747 5745 5743 5742 5741 5741 5740 5740 5739 5739 5738 5736 5735 5734 5733 5732 5733 5730 5729 5728 5725 5723 5723 5721 5718 5719 5720 5716 5712 5712 5715 5720 5723 5721 5720 5720 5719 5718 5717 5716 5715 5714
5746 5745 5745 5743 5742 5741 5741 5740 5740 5737 5736 5734 5733 5732 5732 5732 5730 5729 5728 5727 5726 5724 5721 5721 5719 5717 5714 5716 5717 5711 5704 5701 5707 5714 5716 5716 5715 5715 5715 5714 5714 5713 5712
5747 5747 5745 5742 5741 5741 5740 5739 5736 5733 5731 5732 5732 5731 5731 5730 5729 5727 5726 5725 5723 5722 5720 5719 5716 5716 5713 5711 5712 5712 5709 5705 5699 5700 5706 5710 5711 5711 5711 5712 5711 5710 5709
5749 5747 5743 5741 5739 5739 5738 5738 5736 5735 5734 5734 5732 5729 5729 5727 5727 5726 5724 5722 5721 5720 5717 5716 5714 5713 5711 5708 5707 5707 5706 5705 5703 5696 5694 5699 5703 5706 5707 5707 5707 5706 5706
5749 5746 5742 5738 5736 5737 5737 5737 5735 5734 5733 5731 5728 5726 5726 5726 5725 5724 5722 5720 5719 5717 5715 5713 5711 5710 5708 5705 5704 5703 5701 5698 5696 5694 5690 5691 5693 5699 5703 5703 5703 5702 5701